This is the latest recevied weather packets stored in our database for station/object OE-11061. If no packets are shown the sender has not sent any weather packets the latest 10 day(s).
| Time | Temp. | Humidity | Pressure | Rain* | Wind** | Luminosity | Snow |
|---|---|---|---|---|---|---|---|
| 1788145894 | 17.78° C | 94% | 1014.2 hPa | 0 mm | - | 0 W/m² | - |
| 1788145521 | 17.78° C | 94% | 1014.2 hPa | 0 mm | - | 0 W/m² | - |
| 1788144921 | 17.78° C | 95% | 1014.3 hPa | 0 mm | - | 0 W/m² | - |
| 1788144094 | 17.78° C | 94% | 1014.4 hPa | 0 mm | - | 0 W/m² | - |
| 1788143721 | 17.78° C | 94% | 1014.3 hPa | 0 mm | - | 0 W/m² | - |
| 1788143121 | 17.78° C | 94% | 1014.4 hPa | 0 mm | - | 0 W/m² | - |
| 1788142294 | 17.78° C | 92% | 1014.5 hPa | 0 mm | - | 0 W/m² | - |
| 1788141922 | 18.33° C | 91% | 1014.3 hPa | 0 mm | - | 0 W/m² | - |
| 1788141322 | 17.78° C | 92% | 1014.4 hPa | 0 mm | - | 0 W/m² | - |
| 1788140495 | 17.78° C | 94% | 1014.8 hPa | 0.25 mm | - | 0 W/m² | - |
| 1788140121 | 18.33° C | 92% | 1014.8 hPa | 0.51 mm | - | 0 W/m² | - |
| 1788139522 | 18.33° C | 93% | 1014.8 hPa | 0.76 mm | - | 0 W/m² | - |
| 1788138694 | 18.33° C | 93% | 1014.9 hPa | 1.02 mm | - | 0 W/m² | - |
| 1788138322 | 18.33° C | 93% | 1015.1 hPa | 1.02 mm | - | 0 W/m² | - |
| 1788137722 | 18.33° C | 92% | 1014.8 hPa | 1.02 mm | - | 0 W/m² | - |
| 1788136894 | 18.33° C | 91% | 1014.9 hPa | 1.27 mm | - | 0 W/m² | - |
| 1788136522 | 18.33° C | 92% | 1015.1 hPa | 1.52 mm | - | 0 W/m² | - |
| 1788135922 | 18.33° C | 92% | 1015.3 hPa | 1.02 mm | - | 0 W/m² | - |
| 1788135095 | 18.33° C | 93% | 1015.4 hPa | 1.02 mm | - | 0 W/m² | - |
| 1788134722 | 18.89° C | 94% | 1015.4 hPa | 1.02 mm | - | 0 W/m² | - |
| 1788134122 | 18.89° C | 93% | 1015.5 hPa | 1.02 mm | - | 0 W/m² | - |
| 1788133533 | 18.89° C | 92% | 1015.2 hPa | 0.76 mm | - | 0 W/m² | - |
| 1788132921 | 18.89° C | 91% | 1015.5 hPa | 0.76 mm | - | 0 W/m² | - |
| 1788132321 | 18.89° C | 90% | 1015.2 hPa | 0.51 mm | - | 0 W/m² | - |
| 1788131722 | 18.89° C | 89% | 1015.1 hPa | 0.51 mm | - | 0 W/m² | - |
* Rain latest hour (hover to see other rain measurements)
** Current wind speed in m/s (hover to see current wind gust speed)